Location: Unspecified
(37.3333°N, 0.0000°E)
Time: 16:51:52
(UTC+00:00)

Tiangong 2 - Pass Details

Date: 24 May 2019
Orbit: 376 x 389 km, 42.8° (Epoch: 17 June)

Event Time Altitude Azimuth Distance (km) Brightness Sun altitude
Rises 20:07:50 0° 276° (W) 2,236 6.1 -10.7°
Reaches altitude 10° 20:10:02 10° 287° (WNW) 1,384 5.1 -11.1°
Maximum altitude 20:12:52 31° 352° (N) 692 2.8 -11.5°
Drops below altitude 10° 20:15:41 10° 57° (ENE) 1,383 3.7 -12.0°
Enters shadow 20:16:59 - 65° (ENE) 1,878 4.3 -12.2°
